Regional Weather Roundup
Issued by NWS

Home | Current Version | Previous Version | Text Only | Print | Product List | Glossary On
Versions: 1 2 3 4 5 6 7 8 9 10 11 12 13 14 15 16 17 18 19 20 21 22 23 24 25 26 27 28 29 30 31 32 33 34 35 36 37 38 39 40 41 42 43 44 45 46 47 48 49 50
000
ASUS43 KMPX 300910
RWRMN
WEATHER ROUNDUP FOR MINNESOTA
NATIONAL WEATHER SERVICE TWIN CITIES/CHANHASSEN MN
400 AM CDT TUE MAY 30 2017


NOTE: "FAIR" INDICATES FEW OR NO CLOUDS BELOW 12,000 FEET WITH NO
SIGNIFICANT WEATHER AND/OR OBSTRUCTIONS TO VISIBILITY. N/A MEANS
CURRENT SKY AND/OR WEATHER CONDITIONS ARE NOT AVAILABLE.

MNZ060>063-068>070-301000-
   Twin Cities Metro

CITY           SKY/WX    TMP DP  RH WIND       PRES   REMARKS
TWIN CITIES    MOCLDY    54  44  69 W12       29.87R
ST PAUL        MOCLDY    53  46  77 W13       29.87R
CRYSTAL        MOCLDY    52  43  71 W10       29.85S
BLAINE         MOCLDY    54  46  76 W9        29.85S
LAKEVILLE      CLOUDY    52  45  76 W8        29.88S
EDEN PRAIRIE   CLOUDY    53  45  74 SW6       29.87R
SOUTH ST PAUL  PTCLDY    53  45  74 W7        29.86S
LAKE ELMO      MOCLDY    52  46  82 W9        29.86S
$$
MNZ001>005-007-008-013>017-022>024-027-028-301000-
   Northwest Minnesota

CITY           SKY/WX    TMP DP  RH WIND       PRES   REMARKS
BEMIDJI        CLOUDY    41  40  97 W13       29.85S FOG
HALLOCK        CLOUDY    45  43  93 NW14      29.89S
ROSEAU         DRIZZLE   43  37  81 NW12      29.85R
WARROAD        CLOUDY    43  39  87 W10       29.83S FOG
CROOKSTON      DRIZZLE   45  43  93 N15       29.91S
FOSSTON        DRIZZLE   43  41  93 NW10      29.88S
DETROIT LAKES  RAIN      45  43  93 NW13      29.90S
MOORHEAD       CLOUDY    48  43  81 NW8       29.93S
PARK RAPIDS    CLOUDY    45  39  79 NW17      29.85S
MAHNOMEN       CLOUDY    43  42  95 NW16      29.89S
$$
MNZ006-009>011-018-025>026-301000-
   North Central Minnesota

CITY           SKY/WX    TMP DP  RH WIND       PRES   REMARKS
BAUDETTE       CLOUDY    43  43 100 W12       29.80S
FLAG ISLAND    CLOUDY    45  43  93 NW16G23   29.80R FOG
INTL FALLS     LGT RAIN  44  43  96 W7        29.76F FOG
WASKISH        CLOUDY    43  41  93 NW14G20   29.82S
BIG FORK       LGT RAIN  45  39  81 NW3       29.80R
LONGVILLE      DRIZZLE   45  41  87 W8        29.83S
GRAND RAPIDS   CLOUDY    43  40  89 NW13      29.82S
CRANE LAKE     CLOUDY    43  41  93 NW3       29.77R FOG
ORR            CLOUDY    43  39  87 W7        29.74S
COOK           DRIZZLE   45  39  81 W8        29.77S
WALKER         CLOUDY    41  39  94 W10       29.85R
$$
MNZ012-019>021-037-301000-
   Northeast Minnesota

CITY           SKY/WX    TMP DP  RH WIND       PRES   REMARKS
DULUTH         CLOUDY    46  43  89 NW12      29.76S
ELY            CLOUDY    45  41  87 W8        29.73S
HIBBING        CLOUDY    43  39  86 NW10      29.77S
EVELETH        CLOUDY    45  37  72 W8        29.77S
DULUTH HARBOR  CLOUDY    52  46  82 W15       29.78R
TWO HARBORS    CLOUDY    52  43  71 W3        29.73S
SILVER BAY     CLOUDY    48  41  76 W5        29.71F
GRAND MARAIS     N/A     47  40  76 W7        29.68S
G MARAIS ARPRT CLOUDY    45  37  76 W6        29.68F
$$
MNZ029>031-032-039>041-046>048-054>057-064-301000-
   West Central Minnesota

CITY           SKY/WX    TMP DP  RH WIND       PRES   REMARKS
FERGUS FALLS   CLOUDY    46  43  87 NW9G17    29.91S
WHEATON        CLOUDY    52  45  76 NW10      29.94S
MORRIS         CLOUDY    52  46  82 W12       29.91R
ALEXANDRIA     CLOUDY    48  44  86 NW10G21   29.90S
ELBOW LAKE     CLOUDY    46  45  95 W10       29.92S
WADENA         CLOUDY    45  43  93 NW14G21   29.87S
GLENWOOD       CLOUDY    48  45  87 W12       29.90S
APPLETON       CLOUDY    52  45  76 W7        29.92S
BENSON         CLOUDY    54  45  71 NW9       29.93S
ORTONVILLE     CLOUDY    52  43  71 NW9       29.93S
MADISON        CLOUDY    55  45  67 NW9       29.94S
WILLMAR        CLOUDY    54  46  76 W7        29.92S
$$
MNZ033>034-036-042>043-049>051-058-059-301000-
   Central Minnesota

CITY           SKY/WX    TMP DP  RH WIND       PRES   REMARKS
ST CLOUD       PTCLDY    50  42  74 NW15G25   29.86S
SAUK CENTRE    CLOUDY    49  44  81 W9        29.89S
PAYNESVILLE    CLOUDY    50  45  81 W7        29.89S
AITKIN         CLOUDY    45  43  93 W5        29.81S
PINE RIVER     CLOUDY    45  43  93 NW9       29.88S
BRAINERD       CLOUDY    47  40  76 NW13      29.84S
STAPLES        CLOUDY    45  39  81 NW13      29.86S
LONG PRAIRIE   CLOUDY    46  41  81 W13       29.88S
LITTLE FALLS   CLOUDY    48  41  76 NW10G20   29.86S
LITCHFIELD     CLOUDY    54  46  76 W6        29.89F
BUFFALO        CLOUDY    52  44  73 W12       29.88S
MAPLE LAKE     CLOUDY    53  46  77 W10G16    29.88S
HUTCHINSON     CLOUDY    53  47  80 W9        29.91R
$$
MNZ037-044-045-052-053-301000-
   East Central Minnesota

CITY           SKY/WX    TMP DP  RH WIND       PRES   REMARKS
PRINCETON      CLOUDY    52  45  76 W12       29.85R
MORA           CLOUDY    48  41  76 NW12G17   29.84S
CAMBRIDGE      CLOUDY    54  43  66 W13G18    29.82R
RUSH CITY      CLOUDY    51  44  76 W8        29.82S
MOOSE LAKE     CLOUDY    45  41  87 W3        29.79S
HINCKLEY       CLOUDY    50  43  76 NW9       29.81S
CLOQUET        CLOUDY    46  39  76 W7        29.78S
MCGREGOR       CLOUDY    45  43  93 W7        29.82R
$$
MNZ071>073-080-081-089-090-097-098-301000-
   Southwest Minnesota

CITY           SKY/WX    TMP DP  RH WIND       PRES   REMARKS
MONTEVIDEO     MOCLDY    52  45  76 NW7       29.93S
CANBY          CLOUDY    54  43  68 CALM      29.96R
MARSHALL       CLOUDY    53  44  71 W15       29.94F
REDWOOD FALLS  CLEAR     51  43  74 W8        29.92S
OLIVIA         CLOUDY    52  45  76 W5        29.91S
PIPESTONE      CLOUDY    50  41  71 W5        29.97S
WINDOM         CLOUDY    52  45  76 W9        29.95S
WORTHINGTON    CLOUDY    49  43  80 W8        29.98S
JACKSON        CLOUDY    50  43  76 CALM      29.96S
TRACY          CLOUDY    53  45  74 W7        29.95S
SLAYTON        CLOUDY    50  43  76 W7        29.98S
$$
MNZ065>067-074>077-082>085-091>093-301000-
   South Central Minnesota

CITY           SKY/WX    TMP DP  RH WIND       PRES   REMARKS
MANKATO        PTCLDY    50  45  83 W8        29.92S
NEW ULM        CLOUDY    48  45  87 W6        29.92S
ST JAMES       CLOUDY    52  45  76 W10       29.94S
FAIRMONT       CLOUDY    52  44  74 W12       29.95S
GLENCOE        CLOUDY    54  48  81 W9        29.89S
FARIBAULT      CLOUDY    54  46  76 SW8       29.90S
OWATONNA       CLOUDY    54  45  71 W8        29.91S
WASECA         PTCLDY    50  45  81 SW8       29.93S
ALBERT LEA     CLOUDY    55  48  76 W6        29.93S
$$
MNZ078>079-086>088-094>096-301000-
   Southeast Minnesota

CITY           SKY/WX    TMP DP  RH WIND       PRES   REMARKS
ROCHESTER      CLOUDY    50  46  86 W14       29.91R
RED WING       PTCLDY    54  45  71 W6        29.86S
STANTON        MOCLDY    53  46  75 W8        29.88S
DODGE CENTER   CLOUDY    52  45  76 W13       29.90S
WINONA         CLOUDY    54  46  76 W5        29.89R
AUSTIN         CLOUDY    52  46  82 W6        29.92S
PRESTON        MOCLDY    49  44  81 W10       29.92R
$$
ABBREVIATIONS USED IN REMARKS
   TC - TEMPERATURES IN CELSIUS
  WCI - WIND CHILL INDEX
   HX - HEAT INDEX
  VSB - VISIBILITY
$$



USA.gov is the U.S. government's official web portal to all federal, state and local government web resources and services.